Regional Weather Roundup
Issued by NWS Newport/Morehead, NC

Current Version | Previous Version | Text Only | Print | Product List | Glossary Off
Versions: 1 2 3 4 5 6 7 8 9 10 11 12 13 14 15 16 17 18 19 20 21 22 23 24 25 26 27 28 29 30 31 32 33 34 35 36 37 38 39 40 41 42 43 44 45 46 47 48 49 50

000
ASUS42 KMHX 190813
RWRMHX
WEATHER ROUNDUP FOR EASTERN NORTH CAROLINA
NATIONAL WEATHER SERVICE NEWPORT/MOREHEAD CITY NC
400 AM EDT THU OCT 19 2017

NOTE: "FAIR" INDICATES FEW OR NO CLOUDS BELOW 12,000 FEET
WITH NO SIGNIFICANT WEATHER AND/OR OBSTRUCTIONS TO VISIBILITY

NCZ015>017-031-032-045>047-102-103-190900-
NORTH COAST

CITY           SKY/WX    TMP DP  RH WIND       PRES   REMARKS
EDENTON        CLEAR     56  53  89 CALM      30.29F
ELIZABETH CITY CLEAR     59  56  89 N6        30.28F
KITTY HAWK     MOSUNNY   64  57  76 CALM      30.26F
MANTEO         CLEAR     61  57  88 NE7       30.27F

$$

NCZ045>047-081-094-103-104-190900-
CENTRAL COAST

CITY           SKY/WX    TMP DP  RH WIND       PRES   REMARKS
FRISCO         PTCLDY    67  63  87 NE8       30.24F

$$

NCZ095-097-098-100-101-190900-
SOUTHERN COAST

CITY           SKY/WX    TMP DP  RH WIND       PRES   REMARKS
BEAUFORT       CLEAR     62  60  93 N9        30.24S
CEDAR ISLAND   NOT AVBL
JACKSONVILLE   CLEAR     57  56  96 N6        30.25F
PINEY ISLAND     N/A    N/A N/A N/A NE9       30.24F
WILMINGTON     CLEAR     57  54  89 N8        30.24F


$$

NCZ011>013-027>030-043-044-078>080-089-090>093-098-190900-
COASTAL PLAIN

CITY           SKY/WX    TMP DP  RH WIND       PRES   REMARKS
AHOSKIE        PTCLDY    45  45 100 CALM      30.30F
CLINTON        CLEAR     51  51 100 CALM      30.28F
ELIZABETHTOWN  NOT AVBL
GOLDSBORO      PTCLDY    50  48  92 W3        30.26F FOG
GREENVILLE     CLOUDY    46  46 100 CALM      30.29F FOG
HAVELOCK       MOCLDY    61  59  93 N9        30.26F
KENANSVILLE    CLEAR     48  46  93 CALM      30.27F
KINSTON        CLEAR     47  47  97 CALM      30.28F
NEW BERN       CLEAR     59  57  93 N5        30.27F
RICHLANDS      CLEAR     54  52  93 NE5       30.26F
ROCKY MOUNT    CLEAR     47  47 100 CALM      30.29F FOG
WASHINGTON     MOCLDY    56  53  91 NE3       30.28F
WHITEVILLE     CLEAR     54  52  93 CALM      30.25F

$$

AMZ130-135-150-152-154-156-158-170-250-252-270-ANZ085-086-088-633-658-670-190900-
MARINE OBSERVATIONS

STATION/POSITION TIME  TEMP    WIND        PRES    WAVE   SWELL
                       AIR SEA DIR/SP/G            HT/PER HT/PER
                 (UTC) (F)     (DEG/KT/KT) (MB)    (FT/S) (FT/S)
CHESAPEAKE LIGHT NOT AVBL
64 E VA BEACH    0750   67 67   70/ 10/ 10 1025.6    3/10   3/10
DUCK             0748   67 68   40/  9/ 11 1024.8
2 E DUCK         0800      69                N/A     4/ 8
OREGON INLET     0742   67 65   40/  8/ 13 1024.5
13E OREGON INLT  0748      71                N/A     5/ 9   3/ 9
HATTERAS CG      0748   67 68   40/  8/ 12 1023.8
DIAMOND BUOY     0750   74 81   70/ 12/ 16 1023.1    5/10   5/10
CAPE LOOKOUT     0800   64     360/ 11/ 13 1023.3
BEAUFORT LAB     0748   63 69   10/  9/ 12 1024.1
30 SE NEW RVR IN 0708   71      40/ 16/ 21 1022.9
30 SE NEW RVR IN NOT AVBL
27 SE WRIGHTSVLE 0708   71 77   70/ 17/ 25 1022.7
5 SE WRIGHTSVLE  0708   67 74   40/ 16/ 23 1023.6
225 S CAPE HAT   0750   76 80   70/ 17/ 21 1018.6    9/ 7   3/ 9
41 SE CHARLESTON 0800   73 79   30/ 19/ 23 1020.9

$$



USA.gov is the U.S. government's official web portal to all federal, state and local government web resources and services.